Wind_Speed
1 1 2 2 3 3 3 4 5 5 5 6 6 5 5 5 6 6 7 8 8 8 9 9 9 9 9 10 10 11 11 12 13 14 15 15 16 16
2 3 3 2 3 3 4 5 6 6 6 7 6 5 6 6 7 7 8 8 9 9 9 10 10 10 10 11 12 13 14 14 15 15 15 16 17 18
3 3 4 4 4 5 5 5 6 6 7 7 6 7 7 8 8 9 9 10 10 10 11 11 11 11 12 12 13 14 14 15 16 16 17 18 18 18
4 4 5 5 5 6 6 6 6 6 7 7 8 8 8 9 9 10 11 11 12 12 11 12 12 13 13 14 15 15 16 17 18 19 19 19 20 21
5 5 5 6 6 6 7 7 7 8 9 9 9 9 10 10 10 11 11 12 12 12 12 13 13 14 15 16 16 17 18 19 19 20 20 21 22 23
6 6 6 6 6 7 8 9 9 9 9 10 10 10 11 12 12 12 12 13 13 14 14 15 15 16 17 17 17 18 19 20 21 21 22 23 24 25
7 7 8 8 9 9 10 10 10 10 11 11 12 12 13 13 13 13 13 14 15 16 16 16 17 18 18 19 19 19 20 22 23 24 24 25 26 26
10 10 10 10 11 11 11 11 12 12 13 13 14 14 14 14 14 15 15 15 16 16 17 18 19 19 20 20 21 22 23 24 25 26 27 27 27 28
11 11 11 12 12 13 13 13 13 13 14 14 15 15 15 16 16 16 17 17 18 18 19 20 21 22 23 23 24 25 26 27 28 28 29 29 30 31
12 13 13 13 13 13 13 14 14 15 15 15 16 16 16 16 17 17 18 19 20 21 21 22 23 24 25 26 26 27 28 29 29 30 31 32 33 34
13 13 13 14 14 14 14 15 15 16 16 17 17 18 18 18 18 19 20 21 22 23 23 24 25 26 27 28 29 29 30 30 31 32 34 35 36 37
14 14 14 15 16 16 16 16 17 18 18 19 19 20 20 20 21 21 22 23 24 24 25 26 27 27 27 29 30 31 32 33 34 36 37 37 38 39
15 16 16 17 17 17 18 18 19 20 20 21 22 22 23 22 23 23 24 25 25 26 27 28 29 30 30 31 32 34 35 36 37 38 39 40 41 42
16 16 16 17 18 18 20 20 21 22 22 23 24 24 24 24 24 25 26 27 28 29 30 31 32 33 33 34 35 36 37 38 39 40 40 41 42 43
18 18 18 19 19 20 21 22 22 22 23 24 25 25 25 26 27 28 28 29 30 32 33 34 35 35 36 37 38 38 39 40 40 41 41 42 42 43
19 20 20 20 21 21 22 22 23 23 24 25 26 27 27 28 29 29 30 32 33 34 35 35 36 37 38 38 39 39 40 40 41 41 42 42 42 43
21 21 21 21 22 23 23 24 25 26 27 28 28 28 29 30 31 31 33 34 34 34 35 36 37 38 38 39 39 40 41 41 42 42 42 42 43 43
22 22 23 24 24 25 25 26 27 28 28 29 30 30 30 31 32 33 34 35 35 35 36 36 37 38 38 39 39 40 41 42 43 43 43 43 43 43
22 23 24 25 25 26 26 28 29 29 30 30 30 30 31 32 33 34 35 35 35 36 37 38 38 39 39 39 40 41 42 43 43 44 44 44 44 44
23 24 25 25 26 27 28 29 30 30 30 30 31 31 31 32 34 35 35 36 36 37 38 39 39 40 41 41 41 42 43 44 45 45 45 45 45 46
25 25 26 26 27 28 29 29 29 29 30 31 31 32 33 34 35 36 36 37 37 38 38 39 40 42 42 43 43 44 45 46 46 47 46 46 46 47
26 26 27 28 28 28 29 29 30 30 31 32 33 34 35 35 36 37 37 37 38 39 40 41 42 43 45 45 45 46 47 48 48 49 48 48 48 47
26 27 27 28 28 29 29 29 30 31 32 33 34 35 36 37 37 37 38 39 40 41 42 43 44 46 46 47 47 48 49 49 49 49 49 48 48 47
Wind_Direction
258 275 278 289 291 300 302 304 304 301 303 306 306 306 302 304 306 303 301 302 300 297 295 294 294 294 297 298 297 297 297 297 299 300 302 302 302 301
264 271 277 282 285 293 298 298 301 298 298 303 301 300 303 300 301 302 301 300 300 297 296 296 294 294 294 297 297 297 297 297 299 301 301 302 303 302
266 274 278 279 285 291 294 299 302 299 297 300 299 300 300 300 298 298 298 298 299 297 297 295 293 293 295 297 297 297 298 298 298 298 298 300 302 303
270 277 281 280 281 286 292 302 303 304 306 302 296 297 299 299 296 297 297 298 299 297 295 293 292 293 296 298 299 299 300 298 298 297 299 299 301 302
270 277 279 281 279 283 289 295 300 304 306 300 300 295 296 297 295 295 294 297 297 296 294 292 291 293 295 296 297 298 299 299 298 298 299 300 300 300
269 272 275 280 281 286 291 293 294 296 300 300 301 300 297 296 295 297 295 294 295 293 292 292 293 295 296 296 296 297 298 299 300 300 300 299 299 298
268 274 277 280 282 286 290 291 291 293 296 299 299 298 297 297 294 294 296 296 293 296 294 296 295 295 295 295 296 297 298 299 300 300 300 300 299 300
268 273 276 278 282 285 288 288 290 293 297 297 298 297 296 296 295 293 295 297 297 298 298 299 299 297 299 296 298 299 300 301 302 302 301 300 300 301
268 272 275 278 282 284 286 287 289 292 295 297 297 298 296 296 296 295 295 295 295 297 298 299 299 298 298 298 298 299 299 300 300 301 301 300 300 299
269 273 276 279 283 285 285 286 288 290 294 296 297 297 297 296 297 298 297 297 297 297 296 297 298 298 297 296 297 298 299 299 300 300 300 299 299 299
271 274 277 280 283 286 287 288 290 292 295 296 296 296 295 295 296 296 296 296 297 298 298 298 298 298 297 297 297 298 299 299 300 301 301 300 300 299
270 274 278 283 285 286 287 288 291 293 294 294 294 295 294 294 295 296 296 296 296 297 298 298 298 298 297 298 298 298 299 299 300 301 301 300 299 299
273 275 278 282 284 285 287 289 291 292 293 294 293 294 294 293 294 295 295 296 297 297 298 298 298 298 297 297 297 298 299 300 300 301 301 301 300 299
274 277 281 283 286 287 288 291 291 292 292 293 294 293 293 292 294 295 296 297 298 298 299 299 299 298 297 298 298 299 300 300 300 301 301 301 301 301
272 275 280 284 287 289 290 292 293 295 295 295 295 295 294 293 293 295 296 298 299 299 299 299 299 299 299 299 299 299 300 300 300 300 301 301 302 302
272 276 281 284 287 289 291 292 293 295 296 296 296 296 295 294 294 294 296 297 298 299 299 299 300 301 301 301 301 301 301 301 301 301 302 303 303 303
276 279 282 285 287 290 292 293 294 294 295 296 296 296 296 294 295 296 297 297 298 298 299 300 302 302 302 302 302 302 302 302 302 303 303 304 305 304
277 279 282 284 287 289 291 293 294 296 297 298 298 297 296 295 296 297 297 298 298 299 300 302 303 303 303 303 304 304 303 303 303 303 304 305 305 304
279 281 283 284 287 289 291 293 295 296 297 297 297 297 297 297 297 298 299 299 299 300 301 302 303 303 304 304 304 304 304 303 304 304 305 305 305 305
280 282 284 286 288 290 292 294 295 296 297 297 297 297 298 299 299 299 299 299 300 300 301 302 303 303 304 304 305 305 304 304 304 304 305 305 305 305
280 282 285 288 290 291 292 294 296 296 297 297 297 297 298 298 299 300 300 300 300 300 301 301 302 303 303 304 305 305 305 305 305 305 304 304 304 304
281 283 285 288 290 292 293 294 295 296 297 297 297 298 298 299 299 300 300 300 300 300 300 300 300 301 302 304 305 305 306 305 305 305 304 304 304 304
282 284 286 288 291 293 294 294 296 297 297 298 299 299 299 300 300 300 300 301 301 300 300 300 300 301 302 303 304 305 305 305 305 304 304 304 304 304
Height
5854 5854 5854 5854 5853 5853 5853 5852 5852 5850 5850 5849 5848 5847 5846 5845 5844 5843 5842 5841 5840 5840 5839 5838 5837 5836 5834 5833 5832 5831 5829 5828 5826 5825 5823 5821 5819 5817
5853 5853 5853 5853 5853 5852 5852 5851 5850 5850 5848 5847 5846 5845 5845 5844 5842 5842 5841 5840 5839 5837 5837 5835 5834 5833 5832 5831 5829 5828 5826 5825 5823 5821 5819 5817 5815 5813
5853 5852 5852 5852 5852 5851 5851 5850 5849 5848 5847 5846 5845 5844 5843 5842 5841 5840 5839 5838 5836 5835 5834 5833 5832 5830 5829 5828 5826 5825 5823 5821 5819 5817 5815 5813 5811 5809
5852 5851 5851 5851 5850 5850 5849 5848 5848 5847 5846 5844 5843 5842 5841 5840 5839 5838 5836 5835 5834 5832 5831 5830 5829 5827 5826 5824 5823 5821 5819 5817 5815 5813 5811 5808 5806 5804
5850 5850 5850 5849 5849 5848 5848 5847 5846 5845 5844 5842 5841 5840 5839 5838 5837 5835 5834 5833 5831 5830 5828 5827 5825 5824 5822 5821 5819 5817 5815 5813 5810 5808 5806 5803 5801 5798
5848 5848 5848 5848 5847 5847 5846 5845 5844 5843 5842 5840 5839 5838 5837 5835 5834 5833 5831 5830 5828 5827 5825 5823 5822 5820 5818 5817 5814 5812 5810 5808 5805 5803 5800 5798 5796 5793
5846 5846 5846 5846 5845 5845 5844 5843 5842 5841 5839 5838 5837 5835 5834 5833 5831 5830 5828 5826 5825 5823 5821 5819 5817 5816 5814 5812 5810 5807 5805 5803 5800 5798 5795 5792 5789 5786
5844 5844 5844 5843 5843 5842 5841 5840 5839 5838 5837 5835 5834 5832 5831 5830 5828 5827 5825 5823 5821 5820 5817 5815 5813 5811 5809 5807 5804 5802 5800 5797 5794 5791 5788 5785 5782 5779
5841 5841 5841 5840 5840 5839 5838 5837 5836 5835 5834 5832 5831 5829 5828 5826 5824 5823 5821 5819 5817 5815 5813 5811 5809 5806 5804 5801 5799 5796 5793 5790 5787 5784 5781 5778 5775 5772
5838 5838 5838 5837 5836 5835 5835 5834 5832 5831 5830 5828 5827 5825 5823 5822 5820 5818 5817 5815 5812 5810 5808 5806 5803 5801 5798 5795 5792 5789 5786 5783 5780 5777 5773 5770 5767 5763
5835 5834 5834 5834 5833 5832 5831 5830 5829 5827 5825 5824 5822 5821 5819 5817 5815 5814 5812 5810 5807 5805 5803 5800 5798 5795 5791 5788 5785 5782 5779 5775 5772 5768 5765 5761 5757 5753
5831 5831 5830 5830 5829 5828 5827 5825 5824 5823 5821 5819 5818 5816 5814 5812 5810 5808 5806 5804 5801 5799 5796 5794 5791 5788 5785 5781 5777 5774 5770 5767 5763 5759 5755 5751 5746 5742
5827 5827 5826 5825 5824 5823 5822 5820 5819 5817 5816 5814 5812 5810 5808 5806 5804 5802 5800 5797 5795 5792 5789 5787 5783 5780 5777 5774 5770 5766 5762 5758 5753 5749 5744 5740 5735 5730
5823 5822 5821 5821 5819 5818 5817 5815 5813 5812 5810 5808 5806 5804 5802 5800 5798 5795 5793 5790 5787 5784 5781 5778 5775 5771 5768 5764 5760 5756 5752 5747 5743 5738 5733 5728 5723 5717
5818 5817 5816 5815 5814 5813 5811 5809 5807 5805 5804 5802 5800 5798 5795 5793 5791 5788 5785 5782 5779 5776 5772 5769 5765 5761 5758 5754 5750 5746 5741 5736 5731 5727 5721 5716 5711 5705
5812 5812 5811 5810 5808 5807 5805 5803 5801 5799 5797 5795 5793 5791 5788 5785 5783 5780 5777 5774 5770 5767 5763 5759 5755 5751 5747 5743 5738 5734 5729 5725 5720 5715 5710 5704 5698 5693
5807 5806 5805 5804 5803 5801 5799 5797 5795 5793 5790 5788 5785 5783 5780 5777 5774 5771 5768 5765 5761 5758 5753 5749 5745 5741 5737 5732 5728 5723 5718 5713 5708 5703 5698 5692 5686 5680
5801 5800 5799 5798 5796 5795 5793 5790 5788 5786 5783 5780 5777 5774 5772 5769 5766 5762 5759 5756 5752 5748 5744 5740 5736 5731 5727 5722 5717 5712 5707 5702 5697 5691 5686 5681 5675 5668
5795 5794 5792 5791 5789 5788 5785 5783 5781 5778 5775 5772 5769 5766 5763 5760 5757 5754 5750 5746 5742 5739 5734 5730 5725 5721 5717 5712 5707 5701 5696 5691 5685 5680 5674 5668 5663 5657
5788 5787 5785 5784 5782 5780 5778 5775 5773 5770 5767 5764 5761 5758 5755 5751 5748 5744 5741 5737 5733 5729 5725 5720 5715 5710 5706 5702 5697 5691 5684 5679 5673 5668 5662 5656 5650 5644
5780 5779 5778 5776 5774 5772 5770 5767 5765 5762 5759 5756 5753 5749 5746 5742 5739 5735 5731 5727 5723 5719 5715 5710 5705 5700 5695 5690 5685 5679 5673 5666 5660 5655 5649 5644 5638 5632
5773 5771 5770 5768 5766 5764 5762 5759 5756 5753 5750 5747 5744 5740 5737 5733 5729 5725 5721 5717 5713 5709 5704 5699 5694 5689 5684 5678 5673 5667 5661 5654 5647 5640 5634 5629 5623 5618
5765 5763 5762 5760 5758 5755 5753 5751 5748 5745 5742 5738 5735 5731 5727 5723 5719 5715 5711 5706 5702 5697 5693 5688 5682 5677 5671 5666 5660 5654 5648 5641 5634 5628 5621 5614 5609 5604